TimeCDT,TemperatureF,Dew PointF,Humidity,Sea Level PressureIn,VisibilityMPH,Wind Direction,Wind SpeedMPH,Gust SpeedMPH,PrecipitationIn,Events,Conditions,WindDirDegrees,DateUTC
12:55 AM,67.3,66.7,98,30.05,10.0,WNW,5.8,-,N/A,,Clear,290,2012-11-03 05:55:00
1:55 AM,66.2,65.8,99,30.05,9.0,West,3.5,-,N/A,,Clear,280,2012-11-03 06:55:00
2:55 AM,66.4,66.0,99,30.05,10.0,WNW,4.6,-,N/A,,Clear,290,2012-11-03 07:55:00
3:55 AM,66.0,66.0,100,30.06,10.0,West,4.6,-,N/A,,Clear,280,2012-11-03 08:55:00
4:55 AM,64.0,63.7,99,30.07,8.0,Calm,Calm,-,N/A,,Clear,0,2012-11-03 09:55:00
5:12 AM,62.6,60.8,94,30.07,2.5,Calm,Calm,-,N/A,,Clear,0,2012-11-03 10:12:00
5:14 AM,60.8,60.8,100,30.07,1.8,Calm,Calm,-,N/A,,Clear,0,2012-11-03 10:14:00
5:15 AM,60.8,60.8,100,30.07,1.5,Calm,Calm,-,N/A,,Clear,0,2012-11-03 10:15:00
5:16 AM,60.8,60.8,100,30.07,1.2,Calm,Calm,-,N/A,,Clear,0,2012-11-03 10:16:00
5:18 AM,60.8,60.8,100,30.08,1.0,Calm,Calm,-,N/A,,Clear,0,2012-11-03 10:18:00
5:19 AM,60.8,59.0,94,30.08,0.8,Calm,Calm,-,N/A,,Clear,0,2012-11-03 10:19:00
5:23 AM,59.0,59.0,100,30.08,0.5,Calm,Calm,-,N/A,Fog,Fog,0,2012-11-03 10:23:00
5:27 AM,59.0,59.0,100,30.08,0.5,Calm,Calm,-,N/A,Fog,Fog,0,2012-11-03 10:27:00
5:28 AM,59.0,59.0,100,30.08,0.5,Calm,Calm,-,N/A,Fog,Fog,0,2012-11-03 10:28:00
5:30 AM,59.0,59.0,100,30.08,0.5,Calm,Calm,-,N/A,Fog,Fog,0,2012-11-03 10:30:00
5:31 AM,59.0,59.0,100,30.08,0.5,Calm,Calm,-,N/A,Fog,Fog,0,2012-11-03 10:31:00
5:33 AM,59.0,59.0,100,30.08,0.8,Calm,Calm,-,N/A,,Clear,0,2012-11-03 10:33:00
5:35 AM,59.0,59.0,100,30.08,1.0,Calm,Calm,-,N/A,,Clear,0,2012-11-03 10:35:00
5:37 AM,59.0,59.0,100,30.08,1.2,Calm,Calm,-,N/A,,Clear,0,2012-11-03 10:37:00
5:38 AM,59.0,59.0,100,30.08,1.5,Calm,Calm,-,N/A,,Clear,0,2012-11-03 10:38:00
5:40 AM,59.0,59.0,100,30.08,1.2,Calm,Calm,-,N/A,,Clear,0,2012-11-03 10:40:00
5:41 AM,59.0,59.0,100,30.08,1.0,Calm,Calm,-,N/A,,Clear,0,2012-11-03 10:41:00
5:43 AM,59.0,59.0,100,30.08,0.8,Calm,Calm,-,N/A,,Clear,0,2012-11-03 10:43:00
5:46 AM,59.0,59.0,100,30.08,0.5,Calm,Calm,-,N/A,Fog,Fog,0,2012-11-03 10:46:00
5:47 AM,59.0,59.0,100,30.08,0.5,Calm,Calm,-,N/A,Fog,Fog,0,2012-11-03 10:47:00
5:48 AM,59.0,59.0,100,30.09,0.5,Calm,Calm,-,N/A,Fog,Fog,0,2012-11-03 10:48:00
5:55 AM,58.5,58.5,100,30.09,0.5,North,3.5,-,N/A,Fog,Fog,10,2012-11-03 10:55:00
6:00 AM,57.2,57.2,100,30.09,0.5,North,3.5,-,N/A,Fog,Fog,10,2012-11-03 11:00:00
6:01 AM,57.2,57.2,100,30.09,0.5,North,3.5,-,N/A,Fog,Fog,10,2012-11-03 11:01:00
6:05 AM,57.2,57.2,100,30.09,0.5,Calm,Calm,-,N/A,Fog,Fog,0,2012-11-03 11:05:00
6:08 AM,57.2,57.2,100,30.09,0.5,Calm,Calm,-,N/A,Fog,Fog,0,2012-11-03 11:08:00
6:09 AM,57.2,57.2,100,30.09,0.8,Calm,Calm,-,N/A,,Clear,0,2012-11-03 11:09:00
6:14 AM,57.2,57.2,100,30.09,1.0,Calm,Calm,-,N/A,,Clear,0,2012-11-03 11:14:00
6:18 AM,57.2,57.2,100,30.09,0.8,Calm,Calm,-,N/A,,Clear,0,2012-11-03 11:18:00
6:25 AM,59.0,59.0,100,30.09,0.5,Calm,Calm,-,N/A,Fog,Fog,0,2012-11-03 11:25:00
6:26 AM,59.0,59.0,100,30.09,0.5,Calm,Calm,-,N/A,Fog,Fog,0,2012-11-03 11:26:00
6:34 AM,57.2,57.2,100,30.09,0.5,Calm,Calm,-,N/A,Fog,Fog,0,2012-11-03 11:34:00
6:35 AM,57.2,57.2,100,30.09,0.5,Calm,Calm,-,N/A,Fog,Fog,0,2012-11-03 11:35:00
6:51 AM,59.0,59.0,100,30.10,0.2,Calm,Calm,-,N/A,Fog,Fog,0,2012-11-03 11:51:00
6:55 AM,57.9,57.9,100,30.10,0.2,Calm,Calm,-,N/A,Fog,Fog,0,2012-11-03 11:55:00
6:57 AM,57.2,57.2,100,30.10,0.2,Calm,Calm,-,N/A,Fog,Fog,0,2012-11-03 11:57:00
7:01 AM,57.2,57.2,100,30.10,0.5,Calm,Calm,-,N/A,Fog,Fog,0,2012-11-03 12:01:00
7:25 AM,57.2,57.2,100,30.11,0.8,Calm,Calm,-,N/A,,Clear,0,2012-11-03 12:25:00
7:32 AM,57.2,57.2,100,30.11,0.5,Calm,Calm,-,N/A,Fog,Fog,0,2012-11-03 12:32:00
7:34 AM,57.2,57.2,100,30.12,0.5,Calm,Calm,-,N/A,Fog,Fog,0,2012-11-03 12:34:00
7:38 AM,59.0,59.0,100,30.12,0.5,Calm,Calm,-,N/A,Fog,Fog,0,2012-11-03 12:38:00
7:40 AM,59.0,59.0,100,30.12,0.5,Calm,Calm,-,N/A,Fog,Fog,0,2012-11-03 12:40:00
7:42 AM,59.0,59.0,100,30.12,0.5,Calm,Calm,-,N/A,Fog,Fog,0,2012-11-03 12:42:00
7:44 AM,59.0,59.0,100,30.12,0.8,Calm,Calm,-,N/A,,Clear,0,2012-11-03 12:44:00
7:47 AM,59.0,59.0,100,30.12,1.0,Calm,Calm,-,N/A,,Clear,0,2012-11-03 12:47:00
7:49 AM,59.0,59.0,100,30.12,1.2,Calm,Calm,-,N/A,,Clear,0,2012-11-03 12:49:00
7:50 AM,59.0,59.0,100,30.12,1.5,Calm,Calm,-,N/A,,Clear,0,2012-11-03 12:50:00
7:51 AM,59.0,59.0,100,30.12,1.8,Calm,Calm,-,N/A,,Clear,0,2012-11-03 12:51:00
7:52 AM,60.8,60.8,100,30.12,2.0,Calm,Calm,-,N/A,,Clear,0,2012-11-03 12:52:00
7:55 AM,60.1,60.1,100,30.12,2.5,Calm,Calm,-,N/A,,Clear,0,2012-11-03 12:55:00
7:56 AM,60.8,60.8,100,30.12,3.0,Calm,Calm,-,N/A,,Clear,0,2012-11-03 12:56:00
8:45 AM,66.2,66.2,100,30.12,10.0,Calm,Calm,-,N/A,,Light Drizzle,0,2012-11-03 13:45:00
8:55 AM,67.1,66.9,99,30.13,10.0,NNW,4.6,-,0.00,Rain,Light Rain,330,2012-11-03 13:55:00
8:56 AM,68.0,66.2,94,30.13,10.0,NNW,3.5,-,N/A,,Clear,330,2012-11-03 13:56:00
9:55 AM,73.4,68.5,85,30.13,10.0,Calm,Calm,-,N/A,,Clear,0,2012-11-03 14:55:00
10:33 AM,78.8,68.0,69,30.13,10.0,WNW,3.5,-,N/A,Rain,Light Rain,290,2012-11-03 15:33:00
10:42 AM,78.8,68.0,69,30.13,10.0,Variable,4.6,-,N/A,,Clear,0,2012-11-03 15:42:00
10:55 AM,78.8,70.0,74,30.13,10.0,SW,6.9,-,0.00,,Clear,230,2012-11-03 15:55:00
11:55 AM,77.5,69.3,76,30.12,10.0,SW,6.9,-,N/A,,Clear,220,2012-11-03 16:55:00
12:14 PM,78.8,69.8,74,30.11,10.0,SSW,5.8,-,N/A,,Light Drizzle,210,2012-11-03 17:14:00
12:24 PM,78.8,69.8,74,30.11,10.0,SSW,8.1,-,N/A,,Clear,210,2012-11-03 17:24:00
12:55 PM,77.7,69.3,75,30.10,10.0,SW,10.4,-,0.00,,Clear,220,2012-11-03 17:55:00
1:55 PM,77.2,69.4,77,30.08,10.0,SW,12.7,-,N/A,,Clear,220,2012-11-03 18:55:00
2:55 PM,77.4,69.6,77,30.06,10.0,WSW,11.5,-,N/A,,Clear,240,2012-11-03 19:55:00
3:55 PM,75.7,70.0,82,30.06,10.0,WSW,8.1,-,N/A,,Clear,240,2012-11-03 20:55:00
4:55 PM,74.3,70.2,87,30.06,10.0,WSW,10.4,-,N/A,,Clear,240,2012-11-03 21:55:00
5:55 PM,72.1,69.4,91,30.06,10.0,WSW,5.8,-,N/A,,Clear,250,2012-11-03 22:55:00
6:53 PM,71.6,69.8,94,30.06,10.0,WSW,4.6,-,N/A,Rain,Light Rain,250,2012-11-03 23:53:00
6:55 PM,70.9,70.0,97,30.06,10.0,West,6.9,-,0.00,Rain,Light Rain,260,2012-11-03 23:55:00
7:02 PM,71.6,69.8,94,30.07,10.0,WSW,6.9,-,N/A,,Clear,250,2012-11-04 00:02:00
7:55 PM,70.3,69.4,97,30.07,10.0,WSW,5.8,-,0.00,,Clear,250,2012-11-04 00:55:00
8:55 PM,70.2,69.4,98,30.08,10.0,West,6.9,-,N/A,,Clear,260,2012-11-04 01:55:00
9:55 PM,70.0,69.4,98,30.09,10.0,West,4.6,-,N/A,,Clear,260,2012-11-04 02:55:00
10:55 PM,69.1,68.7,99,30.08,10.0,West,4.6,-,N/A,,Clear,280,2012-11-04 03:55:00
11:55 PM,67.8,67.5,99,30.08,10.0,Variable,3.5,-,N/A,,Clear,0,2012-11-04 04:55:00